Lid_Strength_Index
5 7 8 7 6 7 7 8 8 7 6 6 6 6 5 5 5 5 5 5 4 4 3 2 1 1 1 0 0 0 0 -0 -0 0 1 0 1 -0 -1 -1 -2 -2 -2 -2
7 9 6 5 5 7 8 8 8 7 6 7 6 7 5 5 5 5 5 5 5 4 3 2 2 1 1 1 1 0 0 -0 -0 0 -0 -0 -0 -0 -1 -1 -2 -2 -2 -2
8 7 6 7 7 7 7 8 8 9 7 7 7 7 6 5 5 5 4 4 4 4 4 3 2 2 1 1 1 1 0 -0 -0 -1 -0 -0 -1 -0 0 -0 -0 -1 -1 -2
8 6 7 7 8 7 8 6 8 9 9 10 6 11 7 6 6 5 5 5 4 4 3 3 3 2 2 1 1 0 0 0 -0 -1 0 0 1 1 0 0 -0 -1 -2 -1
9 8 8 8 8 6 8 6 7 8 9 9 8 10 8 6 7 6 5 5 4 3 3 3 3 2 1 1 1 1 0 0 -0 -0 -0 1 1 0 -0 -0 -1 -1 -1 -1
8 6 7 7 6 6 6 7 7 7 9 11 9 9 9 8 7 6 5 4 4 4 3 3 2 2 2 1 1 1 1 1 -0 0 0 0 1 1 1 1 1 0 -0 -0
9 8 7 6 7 6 7 8 11 11 11 12 8 9 8 6 5 5 5 4 4 4 3 3 3 3 2 2 1 1 1 1 1 0 0 0 0 0 1 0 1 0 0 0
11 12 8 7 7 8 8 8 10 13 12 11 8 10 8 5 4 4 3 3 3 4 3 3 3 2 2 2 1 1 1 1 1 1 1 0 0 1 0 0 0 0 0 -0
10 10 7 7 6 6 8 9 7 9 9 10 9 8 6 5 5 4 4 3 3 4 3 3 3 2 2 2 2 1 1 1 1 1 1 1 0 0 0 -0 -0 0 -0 -0
8 10 8 8 6 6 7 6 9 9 12 13 10 9 9 7 6 5 4 4 3 3 3 3 3 2 2 2 1 1 1 1 1 1 1 0 0 0 0 -0 0 -0 -0 -1
8 8 9 8 9 9 8 9 8 8 9 12 12 10 6 6 5 5 4 4 3 3 3 3 2 2 2 1 1 1 1 1 1 1 1 1 1 0 0 0 0 0 -0 -0
8 8 10 9 7 7 7 8 8 10 11 10 10 9 6 5 4 4 4 3 3 2 2 2 2 2 2 2 2 2 1 1 1 1 1 1 1 1 1 0 0 -0 0 -0
8 10 11 10 8 8 9 8 8 8 7 10 11 9 5 4 4 4 4 4 3 2 2 2 2 2 2 2 2 2 1 1 1 1 1 1 1 1 1 1 0 0 0 0
9 9 9 11 9 8 10 9 8 8 10 10 9 8 7 6 5 4 4 4 4 3 3 2 2 2 2 2 2 2 1 1 1 1 1 1 1 1 1 1 0 0 0 0
9 10 10 9 10 10 9 9 8 9 8 10 8 8 6 5 5 4 3 3 4 4 4 2 2 2 2 2 1 1 1 1 1 1 1 1 1 1 1 1 1 0 0 0
10 11 10 11 10 11 11 9 9 8 8 8 8 8 5 5 4 4 4 3 3 4 4 3 2 2 2 2 2 2 2 1 1 1 2 1 1 1 1 1 1 1 1 0
11 11 11 12 10 11 12 10 9 9 8 8 9 7 5 5 5 4 4 3 3 3 2 2 3 2 2 2 1 2 2 1 1 1 1 1 1 1 1 1 1 1 1 1
11 11 11 12 11 15 9 7 7 9 8 7 7 6 6 5 4 4 3 3 3 3 2 2 3 2 1 1 1 1 1 1 2 2 2 1 1 2 1 1 1 1 1 1
10 11 13 14 13 11 10 9 9 9 9 7 7 6 6 5 5 5 3 2 2 2 2 2 1 1 0 1 1 1 1 1 2 2 2 2 1 2 1 2 2 1 1 1
11 10 13 13 15 15 10 8 7 7 11 6 6 6 6 5 7 6 3 3 2 2 1 1 1 1 1 1 1 1 2 2 2 2 2 1 1 1 2 1 1 1 1 1
13 13 14 14 14 12 8 6 5 11 11 6 6 6 6 7 6 4 3 3 2 2 2 1 1 1 1 1 1 1 1 2 1 1 1 1 1 1 1 1 1 1 1 1
10 13 14 13 14 16 8 9 10 6 5 5 5 5 5 5 4 4 4 4 3 3 2 2 2 2 1 1 1 2 2 1 1 1 1 1 1 1 1 1 1 1 2 2
11 9 11 11 12 8 7 8 6 6 6 6 5 4 4 5 4 4 4 4 3 3 2 2 2 2 2 1 1 2 2 1 1 1 2 1 1 1 1 2 2 2 2 2
8 6 9 9 9 9 8 7 7 6 6 4 4 4 3 4 4 4 4 4 3 3 3 2 2 3 3 2 1 1 1 1 1 2 2 1 2 2 1 1 2 2 2 2
7 6 8 8 7 7 7 7 7 6 6 6 5 3 3 3 4 4 4 4 3 3 3 3 3 3 3 2 2 1 1 1 2 2 2 2 2 2 2 2 2 2 1 2
7 8 9 10 6 7 6 6 6 7 7 5 4 4 3 3 5 4 5 4 3 3 3 3 3 2 2 2 2 1 1 1 1 2 2 2 2 2 2 2 2 11 12 14